QPF
0.00 0.00 0.00 0.00 0.00 0.00 0.01 0.00 0.00 0.00 0.01 0.02 0.01 0.01 0.02 0.02 0.01 0.01 0.01 0.02 0.03 0.03 0.04 0.06 0.08 0.07 0.06 0.04 0.04 0.05 0.04 0.08 0.08 0.06 0.05 0.04 0.05 0.07 0.05 0.06 0.07 0.09 0.10
0.00 0.00 0.00 0.00 0.00 0.00 0.01 0.02 0.01 0.01 0.01 0.02 0.01 0.02 0.03 0.02 0.01 0.01 0.00 0.01 0.01 0.02 0.03 0.06 0.11 0.10 0.10 0.09 0.07 0.05 0.05 0.09 0.10 0.09 0.05 0.04 0.07 0.10 0.06 0.06 0.06 0.07 0.09
0.00 0.00 0.00 0.00 0.00 0.01 0.01 0.02 0.01 0.01 0.01 0.01 0.02 0.03 0.03 0.02 0.01 0.01 0.01 0.01 0.01 0.01 0.02 0.05 0.10 0.11 0.13 0.14 0.11 0.08 0.08 0.10 0.09 0.11 0.12 0.09 0.12 0.13 0.07 0.05 0.05 0.08 0.10
0.01 0.00 0.00 0.00 0.01 0.01 0.02 0.01 0.01 0.00 0.00 0.01 0.03 0.04 0.03 0.02 0.03 0.03 0.02 0.01 0.01 0.01 0.01 0.03 0.07 0.09 0.12 0.13 0.11 0.11 0.11 0.09 0.09 0.14 0.18 0.15 0.17 0.15 0.08 0.05 0.06 0.07 0.08
0.00 0.00 0.00 0.00 0.01 0.01 0.01 0.01 0.01 0.00 0.01 0.02 0.03 0.04 0.03 0.03 0.03 0.03 0.04 0.03 0.02 0.02 0.01 0.02 0.04 0.06 0.09 0.10 0.11 0.12 0.11 0.12 0.12 0.14 0.19 0.20 0.18 0.13 0.08 0.07 0.07 0.05 0.06
0.00 0.00 0.00 0.00 0.01 0.01 0.01 0.01 0.01 0.02 0.03 0.03 0.03 0.04 0.04 0.03 0.02 0.03 0.05 0.03 0.03 0.03 0.02 0.01 0.02 0.03 0.05 0.06 0.08 0.10 0.10 0.16 0.19 0.17 0.17 0.16 0.14 0.12 0.09 0.08 0.07 0.06 0.07
0.00 0.00 0.00 0.00 0.00 0.00 0.00 0.01 0.01 0.02 0.03 0.02 0.02 0.02 0.03 0.04 0.04 0.05 0.06 0.06 0.06 0.03 0.02 0.01 0.02 0.02 0.02 0.03 0.05 0.07 0.08 0.12 0.16 0.16 0.15 0.13 0.12 0.13 0.11 0.08 0.09 0.11 0.10
0.00 0.00 0.00 0.00 0.00 0.00 0.00 0.00 0.01 0.01 0.01 0.01 0.01 0.01 0.01 0.04 0.05 0.08 0.08 0.07 0.06 0.03 0.02 0.01 0.02 0.02 0.02 0.02 0.01 0.02 0.05 0.07 0.10 0.11 0.09 0.08 0.09 0.12 0.13 0.09 0.07 0.07 0.09
0.00 0.00 0.00 0.00 0.00 0.00 0.00 0.00 0.00 0.01 0.01 0.02 0.02 0.01 0.02 0.03 0.03 0.06 0.09 0.07 0.05 0.03 0.02 0.02 0.02 0.02 0.02 0.01 0.00 0.00 0.02 0.03 0.07 0.08 0.07 0.06 0.07 0.08 0.12 0.14 0.08 0.07 0.09
0.01 0.01 0.00 0.00 0.00 0.00 0.00 0.00 0.00 0.00 0.01 0.02 0.04 0.03 0.02 0.02 0.02 0.03 0.05 0.05 0.04 0.04 0.04 0.03 0.02 0.02 0.02 0.01 0.01 0.00 0.00 0.01 0.04 0.05 0.05 0.05 0.06 0.08 0.10 0.13 0.13 0.11 0.11
0.01 0.02 0.00 0.00 0.00 0.00 0.00 0.00 0.00 0.00 0.01 0.01 0.02 0.02 0.02 0.01 0.00 0.01 0.02 0.02 0.02 0.03 0.03 0.02 0.02 0.02 0.01 0.01 0.01 0.01 0.00 0.00 0.01 0.03 0.03 0.04 0.05 0.05 0.08 0.11 0.12 0.13 0.13
0.00 0.01 0.00 0.00 0.00 0.00 0.00 0.00 0.00 0.00 0.01 0.01 0.01 0.01 0.01 0.01 0.00 0.01 0.01 0.01 0.01 0.01 0.01 0.00 0.01 0.01 0.01 0.00 0.01 0.01 0.01 0.01 0.01 0.01 0.02 0.02 0.03 0.04 0.07 0.09 0.12 0.13 0.13
0.00 0.00 0.00 0.00 0.00 0.00 0.00 0.00 0.00 0.00 0.01 0.01 0.01 0.01 0.01 0.00 0.00 0.00 0.01 0.01 0.00 0.00 0.00 0.00 0.00 0.00 0.00 0.00 0.00 0.00 0.00 0.01 0.01 0.01 0.01 0.01 0.01 0.02 0.04 0.07 0.10 0.10 0.11
0.00 0.00 0.00 0.00 0.00 0.00 0.00 0.00 0.00 0.00 0.00 0.01 0.01 0.01 0.00 0.01 0.00 0.00 0.00 0.00 0.00 0.00 0.00 0.00 0.00 0.01 0.00 0.00 0.00 0.00 0.00 0.00 0.00 0.01 0.01 0.01 0.01 0.01 0.02 0.03 0.05 0.08 0.09
0.00 0.00 0.00 0.00 0.00 0.00 0.00 0.01 0.01 0.01 0.02 0.03 0.03 0.02 0.01 0.01 0.00 0.00 0.00 0.00 0.00 0.00 0.00 0.00 0.00 0.00 0.01 0.01 0.00 0.00 0.00 0.00 0.00 0.00 0.01 0.01 0.01 0.01 0.02 0.02 0.03 0.05 0.07
0.00 0.00 0.00 0.00 0.00 0.00 0.01 0.01 0.01 0.01 0.01 0.02 0.02 0.02 0.01 0.01 0.00 0.00 0.00 0.00 0.00 0.00 0.00 0.00 0.00 0.01 0.01 0.01 0.00 0.00 0.00 0.00 0.00 0.00 0.00 0.00 0.00 0.01 0.02 0.03 0.03 0.05 0.05
0.00 0.00 0.00 0.00 0.00 0.00 0.00 0.00 0.00 0.00 0.00 0.01 0.01 0.00 0.01 0.01 0.01 0.00 0.00 0.00 0.00 0.00 0.00 0.00 0.00 0.01 0.01 0.01 0.00 0.00 0.00 0.00 0.00 0.00 0.00 0.00 0.00 0.00 0.01 0.03 0.04 0.04 0.04
0.00 0.00 0.00 0.00 0.00 0.00 0.00 0.00 0.00 0.00 0.00 0.00 0.00 0.00 0.00 0.00 0.01 0.01 0.00 0.00 0.00 0.00 0.00 0.00 0.00 0.00 0.01 0.01 0.00 0.00 0.00 0.00 0.00 0.00 0.01 0.00 0.00 0.00 0.00 0.01 0.02 0.03 0.03
0.00 0.00 0.00 0.00 0.00 0.00 0.00 0.00 0.00 0.00 0.00 0.00 0.00 0.01 0.01 0.00 0.00 0.01 0.00 0.00 0.00 0.00 0.00 0.00 0.00 0.00 0.00 0.00 0.00 0.00 0.00 0.00 0.00 0.00 0.01 0.00 0.00 0.00 0.00 0.01 0.01 0.02 0.02
0.00 0.00 0.00 0.00 0.00 0.00 0.00 0.00 0.00 0.00 0.00 0.00 0.00 0.01 0.01 0.01 0.00 0.00 0.00 0.00 0.00 0.00 0.00 0.00 0.00 0.00 0.00 0.00 0.00 0.00 0.00 0.00 0.00 0.00 0.01 0.00 0.00 0.00 0.01 0.01 0.01 0.01 0.03
0.00 0.00 0.00 0.00 0.00 0.00 0.00 0.00 0.00 0.00 0.00 0.00 0.00 0.00 0.00 0.00 0.00 0.00 0.00 0.00 0.00 0.00 0.00 0.00 0.00 0.00 0.00 0.00 0.00 0.00 0.00 0.00 0.00 0.00 0.01 0.01 0.00 0.00 0.01 0.01 0.01 0.02 0.02
0.00 0.00 0.00 0.00 0.00 0.00 0.00 0.00 0.00 0.00 0.00 0.00 0.00 0.00 0.00 0.00 0.00 0.00 0.00 0.00 0.00 0.00 0.00 0.00 0.00 0.00 0.00 0.00 0.00 0.00 0.00 0.00 0.00 0.01 0.02 0.01 0.00 0.00 0.00 0.01 0.02 0.03 0.02
0.00 0.00 0.00 0.00 0.00 0.00 0.00 0.00 0.00 0.00 0.00 0.00 0.00 0.00 0.00 0.00 0.00 0.00 0.00 0.00 0.00 0.00 0.00 0.00 0.00 0.00 0.00 0.00 0.00 0.00 0.00 0.00 0.00 0.01 0.02 0.02 0.00 0.00 0.00 0.01 0.02 0.02 0.01
0.00 0.00 0.00 0.00 0.00 0.00 0.00 0.00 0.00 0.00 0.00 0.00 0.00 0.00 0.00 0.00 0.00 0.00 0.00 0.00 0.00 0.00 0.00 0.00 0.00 0.00 0.00 0.00 0.00 0.00 0.00 0.00 0.01 0.01 0.01 0.02 0.01 0.00 0.00 0.01 0.01 0.01 0.00
0.00 0.00 0.00 0.00 0.00 0.00 0.00 0.00 0.00 0.00 0.00 0.00 0.00 0.00 0.00 0.00 0.00 0.00 0.00 0.00 0.00 0.00 0.00 0.01 0.01 0.00 0.00 0.00 0.00 0.00 0.00 0.00 0.00 0.01 0.01 0.01 0.00 0.00 0.00 0.00 0.00 0.00 0.00
0.00 0.00 0.00 0.00 0.00 0.00 0.00 0.00 0.00 0.00 0.00 0.00 0.00 0.00 0.00 0.00 0.00 0.00 0.00 0.00 0.00 0.00 0.00 0.01 0.01 0.01 0.00 0.00 0.00 0.00 0.00 0.00 0.00 0.01 0.01 0.01 0.00 0.00 0.00 0.00 0.01 0.01 0.01
MSLP
1016.13 1016.06 1015.95 1015.80 1015.64 1015.49 1015.38 1015.32 1015.29 1015.31 1015.34 1015.37 1015.40 1015.42 1015.44 1015.47 1015.52 1015.60 1015.71 1015.85 1016.02 1016.18 1016.33 1016.46 1016.54 1016.57 1016.55 1016.47 1016.35 1016.20 1016.05 1015.91 1015.79 1015.71 1015.63 1015.53 1015.38 1015.12 1014.71 1014.15 1013.44 1012.64 1011.83
1016.24 1016.14 1016.01 1015.86 1015.70 1015.57 1015.48 1015.44 1015.44 1015.48 1015.55 1015.62 1015.68 1015.73 1015.77 1015.80 1015.83 1015.88 1015.96 1016.06 1016.18 1016.32 1016.47 1016.61 1016.72 1016.79 1016.80 1016.76 1016.67 1016.54 1016.39 1016.25 1016.13 1016.05 1015.99 1015.93 1015.83 1015.66 1015.38 1014.96 1014.40 1013.76 1013.11
1016.37 1016.25 1016.11 1015.96 1015.83 1015.73 1015.68 1015.67 1015.72 1015.80 1015.91 1016.02 1016.12 1016.20 1016.26 1016.29 1016.30 1016.31 1016.32 1016.36 1016.42 1016.51 1016.62 1016.75 1016.86 1016.95 1017.00 1017.00 1016.94 1016.84 1016.71 1016.57 1016.46 1016.38 1016.33 1016.31 1016.27 1016.20 1016.04 1015.77 1015.39 1014.94 1014.45
1016.52 1016.38 1016.25 1016.12 1016.02 1015.97 1015.95 1016.00 1016.08 1016.22 1016.37 1016.53 1016.67 1016.78 1016.86 1016.89 1016.88 1016.84 1016.80 1016.76 1016.74 1016.75 1016.80 1016.89 1016.99 1017.08 1017.15 1017.18 1017.16 1017.09 1016.99 1016.87 1016.76 1016.69 1016.65 1016.65 1016.67 1016.67 1016.62 1016.49 1016.28 1016.00 1015.68
1016.70 1016.55 1016.43 1016.33 1016.27 1016.25 1016.28 1016.36 1016.49 1016.66 1016.85 1017.04 1017.23 1017.38 1017.48 1017.53 1017.52 1017.45 1017.35 1017.24 1017.14 1017.07 1017.04 1017.07 1017.13 1017.21 1017.29 1017.34 1017.36 1017.32 1017.24 1017.14 1017.05 1016.98 1016.94 1016.95 1016.99 1017.04 1017.07 1017.05 1016.98 1016.84 1016.66
1016.90 1016.75 1016.64 1016.57 1016.54 1016.56 1016.62 1016.73 1016.87 1017.06 1017.27 1017.50 1017.72 1017.91 1018.06 1018.13 1018.14 1018.07 1017.94 1017.78 1017.62 1017.47 1017.37 1017.33 1017.34 1017.39 1017.46 1017.52 1017.56 1017.55 1017.50 1017.42 1017.33 1017.26 1017.22 1017.22 1017.25 1017.32 1017.38 1017.43 1017.43 1017.40 1017.33
1017.13 1016.99 1016.89 1016.84 1016.83 1016.87 1016.94 1017.04 1017.19 1017.37 1017.59 1017.83 1018.08 1018.31 1018.50 1018.63 1018.68 1018.65 1018.53 1018.36 1018.16 1017.96 1017.80 1017.70 1017.65 1017.66 1017.71 1017.76 1017.80 1017.81 1017.78 1017.72 1017.63 1017.55 1017.49 1017.46 1017.47 1017.51 1017.57 1017.63 1017.67 1017.69 1017.69
1017.39 1017.25 1017.16 1017.12 1017.13 1017.16 1017.22 1017.30 1017.42 1017.57 1017.77 1018.00 1018.27 1018.54 1018.79 1018.99 1019.11 1019.14 1019.08 1018.93 1018.74 1018.53 1018.33 1018.17 1018.08 1018.04 1018.05 1018.08 1018.12 1018.13 1018.10 1018.04 1017.96 1017.86 1017.77 1017.71 1017.68 1017.67 1017.70 1017.74 1017.78 1017.81 1017.83
1017.68 1017.54 1017.46 1017.43 1017.42 1017.44 1017.46 1017.51 1017.57 1017.67 1017.83 1018.04 1018.31 1018.61 1018.92 1019.19 1019.41 1019.53 1019.55 1019.47 1019.32 1019.12 1018.92 1018.74 1018.61 1018.52 1018.49 1018.49 1018.49 1018.49 1018.46 1018.40 1018.30 1018.19 1018.08 1017.98 1017.90 1017.85 1017.83 1017.82 1017.83 1017.85 1017.87
1017.99 1017.86 1017.78 1017.75 1017.73 1017.72 1017.70 1017.69 1017.69 1017.73 1017.83 1018.01 1018.26 1018.58 1018.93 1019.27 1019.58 1019.80 1019.92 1019.93 1019.85 1019.71 1019.53 1019.34 1019.18 1019.06 1018.98 1018.94 1018.91 1018.87 1018.83 1018.75 1018.65 1018.54 1018.41 1018.29 1018.17 1018.08 1018.01 1017.97 1017.94 1017.93 1017.93
1018.30 1018.19 1018.12 1018.08 1018.05 1018.01 1017.95 1017.89 1017.83 1017.80 1017.85 1017.97 1018.20 1018.51 1018.88 1019.28 1019.65 1019.97 1020.19 1020.30 1020.31 1020.23 1020.09 1019.92 1019.75 1019.60 1019.48 1019.39 1019.31 1019.25 1019.17 1019.09 1018.98 1018.87 1018.74 1018.61 1018.49 1018.38 1018.28 1018.20 1018.14 1018.10 1018.08
1018.60 1018.51 1018.45 1018.42 1018.38 1018.32 1018.24 1018.14 1018.03 1017.95 1017.94 1018.01 1018.20 1018.48 1018.85 1019.27 1019.69 1020.06 1020.36 1020.56 1020.65 1020.65 1020.56 1020.42 1020.26 1020.09 1019.94 1019.80 1019.68 1019.58 1019.48 1019.37 1019.27 1019.16 1019.05 1018.93 1018.82 1018.72 1018.62 1018.53 1018.45 1018.39 1018.35
1018.87 1018.80 1018.77 1018.74 1018.72 1018.66 1018.58 1018.46 1018.32 1018.21 1018.15 1018.18 1018.31 1018.55 1018.89 1019.29 1019.72 1020.12 1020.47 1020.73 1020.89 1020.95 1020.92 1020.81 1020.67 1020.50 1020.32 1020.15 1019.99 1019.84 1019.71 1019.60 1019.49 1019.40 1019.31 1019.22 1019.14 1019.06 1018.98 1018.90 1018.83 1018.75 1018.69
1019.09 1019.05 1019.04 1019.05 1019.05 1019.02 1018.95 1018.84 1018.71 1018.59 1018.50 1018.49 1018.57 1018.76 1019.04 1019.39 1019.79 1020.18 1020.54 1020.83 1021.03 1021.13 1021.15 1021.09 1020.97 1020.80 1020.62 1020.42 1020.23 1020.06 1019.90 1019.76 1019.66 1019.57 1019.51 1019.46 1019.42 1019.38 1019.33 1019.27 1019.20 1019.13 1019.06
1019.25 1019.24 1019.27 1019.32 1019.35 1019.36 1019.34 1019.27 1019.17 1019.06 1018.97 1018.93 1018.97 1019.09 1019.30 1019.59 1019.92 1020.26 1020.59 1020.88 1021.10 1021.24 1021.29 1021.27 1021.18 1021.03 1020.85 1020.64 1020.43 1020.23 1020.05 1019.89 1019.78 1019.70 1019.65 1019.63 1019.62 1019.61 1019.59 1019.56 1019.51 1019.44 1019.37
1019.34 1019.38 1019.44 1019.53 1019.62 1019.68 1019.71 1019.69 1019.64 1019.57 1019.50 1019.45 1019.45 1019.52 1019.66 1019.86 1020.11 1020.38 1020.66 1020.92 1021.13 1021.28 1021.37 1021.39 1021.33 1021.21 1021.04 1020.84 1020.62 1020.40 1020.19 1020.02 1019.88 1019.79 1019.74 1019.73 1019.73 1019.74 1019.74 1019.72 1019.68 1019.62 1019.54
1019.38 1019.45 1019.56 1019.69 1019.83 1019.95 1020.03 1020.08 1020.09 1020.06 1020.01 1019.97 1019.95 1019.98 1020.05 1020.17 1020.34 1020.54 1020.75 1020.97 1021.16 1021.32 1021.42 1021.47 1021.45 1021.37 1021.23 1021.04 1020.82 1020.59 1020.36 1020.16 1020.00 1019.88 1019.81 1019.77 1019.76 1019.77 1019.76 1019.74 1019.70 1019.63 1019.55
1019.38 1019.49 1019.64 1019.80 1019.98 1020.15 1020.29 1020.39 1020.45 1020.47 1020.45 1020.43 1020.41 1020.40 1020.42 1020.48 1020.57 1020.71 1020.86 1021.04 1021.21 1021.36 1021.48 1021.56 1021.58 1021.53 1021.42 1021.26 1021.05 1020.81 1020.57 1020.34 1020.14 1019.98 1019.87 1019.79 1019.74 1019.71 1019.68 1019.63 1019.57 1019.49 1019.40
1019.37 1019.51 1019.68 1019.88 1020.08 1020.28 1020.46 1020.60 1020.70 1020.75 1020.77 1020.77 1020.75 1020.73 1020.72 1020.74 1020.79 1020.87 1020.98 1021.12 1021.27 1021.42 1021.55 1021.65 1021.71 1021.70 1021.62 1021.49 1021.29 1021.06 1020.81 1020.56 1020.32 1020.12 1019.95 1019.81 1019.70 1019.61 1019.53 1019.44 1019.34 1019.24 1019.14
1019.36 1019.53 1019.73 1019.94 1020.15 1020.36 1020.55 1020.71 1020.82 1020.91 1020.95 1020.96 1020.95 1020.94 1020.93 1020.93 1020.95 1021.01 1021.09 1021.21 1021.34 1021.49 1021.63 1021.75 1021.83 1021.85 1021.81 1021.71 1021.54 1021.32 1021.06 1020.79 1020.52 1020.27 1020.05 1019.85 1019.67 1019.51 1019.36 1019.22 1019.08 1018.94 1018.82
1019.38 1019.57 1019.78 1020.00 1020.21 1020.41 1020.59 1020.74 1020.86 1020.94 1020.99 1021.02 1021.03 1021.03 1021.03 1021.04 1021.07 1021.11 1021.19 1021.29 1021.42 1021.56 1021.71 1021.84 1021.93 1021.98 1021.97 1021.89 1021.74 1021.54 1021.29 1021.02 1020.73 1020.45 1020.17 1019.92 1019.68 1019.45 1019.23 1019.03 1018.83 1018.66 1018.50
1019.43 1019.65 1019.87 1020.09 1020.29 1020.47 1020.62 1020.74 1020.83 1020.90 1020.95 1020.99 1021.01 1021.04 1021.06 1021.09 1021.14 1021.19 1021.27 1021.38 1021.50 1021.63 1021.77 1021.89 1021.99 1022.05 1022.05 1021.99 1021.87 1021.69 1021.46 1021.20 1020.91 1020.61 1020.31 1020.01 1019.72 1019.44 1019.17 1018.90 1018.66 1018.44 1018.24
1019.53 1019.78 1020.01 1020.22 1020.40 1020.55 1020.66 1020.74 1020.80 1020.85 1020.89 1020.93 1020.97 1021.01 1021.07 1021.13 1021.19 1021.27 1021.36 1021.46 1021.57 1021.69 1021.80 1021.91 1021.99 1022.05 1022.05 1022.01 1021.90 1021.75 1021.55 1021.31 1021.03 1020.74 1020.44 1020.13 1019.81 1019.49 1019.17 1018.87 1018.57 1018.30 1018.07
1019.70 1019.96 1020.20 1020.40 1020.56 1020.68 1020.75 1020.79 1020.82 1020.84 1020.86 1020.89 1020.95 1021.01 1021.10 1021.18 1021.28 1021.37 1021.46 1021.55 1021.64 1021.73 1021.81 1021.89 1021.94 1021.97 1021.96 1021.92 1021.83 1021.69 1021.52 1021.31 1021.07 1020.81 1020.52 1020.22 1019.90 1019.57 1019.24 1018.90 1018.57 1018.26 1017.98
1019.91 1020.19 1020.43 1020.63 1020.77 1020.86 1020.90 1020.91 1020.90 1020.90 1020.91 1020.94 1021.00 1021.09 1021.19 1021.30 1021.41 1021.51 1021.59 1021.67 1021.73 1021.77 1021.81 1021.83 1021.84 1021.82 1021.79 1021.73 1021.65 1021.53 1021.39 1021.22 1021.02 1020.79 1020.54 1020.27 1019.97 1019.65 1019.31 1018.96 1018.61 1018.27 1017.96
1020.17 1020.46 1020.70 1020.88 1021.01 1021.07 1021.09 1021.08 1021.05 1021.03 1021.04 1021.08 1021.15 1021.24 1021.36 1021.48 1021.59 1021.69 1021.76 1021.80 1021.81 1021.81 1021.79 1021.75 1021.70 1021.64 1021.57 1021.49 1021.39 1021.29 1021.16 1021.02 1020.86 1020.68 1020.47 1020.24 1019.98 1019.68 1019.36 1019.02 1018.66 1018.30 1017.96
Thickness
5725 5722 5720 5719 5718 5717 5716 5715 5716 5716 5716 5717 5717 5717 5717 5718 5718 5720 5722 5724 5726 5728 5730 5733 5735 5737 5739 5741 5743 5745 5747 5749 5752 5754 5756 5759 5762 5764 5765 5768 5769 5770 5771
5723 5721 5719 5717 5716 5715 5714 5713 5713 5713 5713 5713 5713 5714 5714 5714 5715 5717 5719 5721 5723 5725 5727 5730 5733 5735 5737 5739 5741 5743 5745 5747 5749 5752 5755 5758 5760 5762 5764 5765 5767 5769 5769
5723 5720 5718 5716 5715 5714 5713 5712 5712 5711 5711 5711 5710 5711 5711 5712 5713 5715 5716 5718 5720 5722 5724 5727 5729 5732 5734 5736 5738 5740 5742 5745 5747 5750 5753 5757 5759 5760 5761 5763 5765 5766 5767
5722 5720 5717 5715 5714 5713 5712 5710 5709 5708 5707 5707 5706 5707 5709 5710 5711 5712 5714 5716 5717 5719 5721 5724 5726 5729 5731 5733 5735 5737 5740 5742 5745 5748 5751 5755 5756 5757 5758 5760 5761 5763 5764
5721 5719 5717 5715 5714 5713 5711 5710 5707 5706 5704 5704 5704 5704 5706 5707 5709 5710 5712 5713 5715 5716 5718 5721 5723 5725 5727 5730 5732 5735 5737 5740 5744 5747 5750 5752 5753 5754 5755 5756 5758 5759 5761
5721 5719 5716 5715 5714 5711 5709 5708 5706 5706 5704 5703 5704 5702 5702 5704 5706 5708 5709 5711 5712 5714 5716 5718 5719 5721 5723 5726 5728 5731 5733 5737 5741 5743 5745 5747 5749 5750 5751 5753 5754 5756 5757
5720 5718 5716 5714 5713 5710 5708 5708 5707 5705 5703 5703 5701 5697 5699 5701 5703 5704 5706 5708 5710 5711 5713 5714 5716 5717 5719 5721 5724 5726 5729 5732 5736 5738 5740 5742 5744 5746 5748 5749 5751 5752 5754
5720 5718 5716 5713 5712 5710 5709 5708 5706 5704 5702 5702 5699 5693 5690 5693 5698 5701 5703 5705 5706 5708 5710 5711 5713 5714 5716 5717 5719 5723 5725 5728 5731 5734 5736 5738 5740 5742 5744 5746 5748 5749 5750
5720 5718 5716 5714 5712 5710 5708 5707 5706 5704 5701 5701 5701 5696 5689 5686 5690 5696 5698 5701 5703 5705 5707 5708 5709 5711 5712 5714 5716 5719 5721 5724 5727 5729 5731 5734 5736 5738 5740 5742 5744 5746 5746
5720 5718 5717 5715 5713 5711 5709 5708 5708 5706 5704 5700 5701 5700 5698 5695 5691 5689 5693 5697 5700 5702 5703 5705 5706 5707 5709 5711 5713 5715 5717 5720 5723 5725 5728 5730 5732 5734 5736 5738 5740 5742 5743
5719 5718 5717 5715 5713 5711 5709 5709 5708 5707 5705 5703 5701 5700 5698 5696 5695 5690 5687 5691 5695 5698 5700 5701 5702 5704 5706 5707 5709 5711 5714 5716 5719 5721 5723 5725 5728 5729 5732 5733 5735 5737 5738
5718 5717 5716 5715 5713 5711 5710 5709 5708 5707 5705 5704 5702 5701 5699 5696 5693 5691 5688 5688 5689 5693 5697 5699 5700 5701 5703 5704 5706 5708 5711 5713 5715 5717 5719 5721 5723 5725 5727 5729 5730 5732 5733
5717 5716 5716 5714 5713 5712 5710 5709 5708 5706 5705 5704 5702 5701 5700 5699 5698 5695 5691 5688 5688 5690 5693 5696 5697 5698 5700 5702 5703 5705 5707 5709 5711 5713 5715 5717 5718 5720 5722 5724 5725 5727 5728
5718 5717 5716 5714 5713 5712 5710 5709 5707 5706 5705 5703 5702 5701 5700 5699 5698 5697 5693 5689 5685 5685 5687 5689 5694 5695 5697 5698 5699 5701 5703 5705 5707 5709 5711 5713 5714 5716 5717 5719 5720 5722 5723
5719 5717 5716 5714 5713 5711 5710 5708 5706 5704 5703 5702 5700 5700 5698 5697 5697 5697 5695 5692 5686 5680 5680 5684 5687 5691 5693 5694 5696 5697 5699 5701 5703 5705 5707 5708 5710 5711 5713 5714 5715 5716 5717
5720 5717 5715 5714 5712 5710 5709 5707 5705 5703 5702 5700 5699 5698 5696 5695 5695 5695 5694 5692 5689 5683 5678 5681 5683 5686 5688 5690 5691 5693 5695 5697 5699 5701 5702 5704 5705 5706 5708 5709 5710 5712 5712
5719 5717 5715 5713 5711 5709 5708 5706 5704 5702 5700 5698 5697 5696 5694 5693 5692 5691 5690 5689 5687 5684 5678 5678 5681 5683 5684 5685 5687 5689 5690 5692 5694 5696 5697 5699 5700 5701 5702 5703 5705 5707 5707
5719 5716 5714 5712 5710 5708 5707 5705 5703 5700 5698 5695 5694 5693 5691 5691 5689 5687 5686 5685 5683 5681 5678 5674 5675 5677 5679 5680 5681 5683 5685 5686 5689 5690 5692 5693 5694 5695 5696 5697 5699 5700 5700
5718 5715 5713 5710 5708 5707 5705 5703 5701 5699 5696 5694 5692 5690 5689 5688 5685 5684 5683 5681 5679 5679 5675 5672 5670 5671 5673 5674 5675 5677 5679 5680 5683 5684 5686 5687 5688 5689 5689 5690 5691 5692 5692
5716 5713 5711 5709 5707 5706 5704 5702 5700 5697 5694 5693 5691 5689 5687 5685 5683 5682 5680 5678 5676 5673 5671 5668 5666 5665 5666 5667 5668 5668 5670 5672 5674 5677 5678 5679 5681 5681 5682 5682 5683 5683 5684
5714 5712 5709 5707 5705 5704 5702 5700 5698 5695 5692 5690 5688 5687 5685 5684 5683 5681 5678 5674 5672 5669 5666 5663 5661 5659 5659 5659 5659 5660 5661 5663 5666 5669 5670 5672 5672 5673 5673 5673 5673 5674 5674
5711 5709 5707 5704 5702 5702 5700 5699 5696 5692 5689 5687 5684 5683 5682 5680 5679 5677 5675 5673 5670 5666 5662 5659 5656 5654 5653 5653 5654 5654 5653 5654 5655 5660 5660 5662 5663 5663 5663 5664 5663 5663 5664
5707 5705 5703 5701 5699 5698 5697 5696 5694 5690 5686 5683 5681 5679 5678 5676 5674 5672 5670 5668 5666 5664 5661 5657 5653 5651 5650 5650 5649 5648 5647 5646 5646 5650 5650 5651 5652 5652 5653 5653 5652 5652 5652
5703 5701 5699 5697 5695 5694 5694 5692 5689 5686 5682 5679 5677 5675 5673 5671 5669 5667 5664 5661 5659 5658 5656 5654 5651 5649 5648 5647 5645 5643 5642 5641 5641 5641 5640 5639 5640 5640 5642 5641 5640 5639 5639
5700 5697 5695 5693 5691 5690 5690 5688 5685 5681 5677 5674 5672 5671 5669 5666 5665 5662 5658 5655 5653 5651 5651 5649 5647 5645 5643 5642 5640 5637 5634 5632 5630 5630 5629 5626 5626 5626 5628 5628 5627 5626 5625
5697 5694 5691 5689 5687 5685 5685 5683 5680 5676 5671 5668 5666 5665 5664 5661 5659 5657 5652 5649 5645 5644 5643 5642 5641 5639 5637 5634 5632 5629 5625 5621 5618 5616 5617 5613 5612 5610 5611 5614 5613 5611 5610